Location: *
(44.1392°N, 4.8079°E)
Time: 08:18:03
(UTC+00:00)

FENGYUN 1C DEB - Visible Passes

Search period start: 29 January 2022 00:00
Search period end: 08 February 2022 00:00
Orbit: 796 x 906 km, 98.8° (Epoch: 28 January)

Date Brightness Start Highest point End Pass type
(mag) Time Alt. Az. Time Alt. Az. Time Alt. Az.
29 Jan ? 18:56:24 32° NNE 18:56:24 32° NNE 18:59:46 10° N visible
29 Jan ? 20:38:25 19° NW 20:38:25 19° NW 20:40:17 10° NW visible
30 Jan ? 18:44:29 29° NE 18:44:29 29° NE 18:47:59 10° N visible
30 Jan ? 20:26:29 24° NW 20:26:29 24° NW 20:28:52 10° NNW visible
31 Jan ? 18:32:34 26° NE 18:32:34 26° NE 18:36:09 10° N visible
31 Jan ? 20:14:35 29° NW 20:14:35 29° NW 20:17:24 10° NNW visible
01 Feb ? 18:20:39 22° NE 18:20:39 22° NE 18:24:14 10° NNE visible
01 Feb ? 20:02:39 35° NW 20:02:39 35° NW 20:05:52 10° NNW visible
02 Feb ? 18:08:43 18° ENE 18:08:43 18° ENE 18:12:14 10° NNE visible
02 Feb ? 19:50:44 42° NNW 19:50:44 42° NNW 19:54:17 10° NNW visible
03 Feb ? 17:56:48 14° ENE 17:57:15 15° ENE 18:00:05 10° NNE visible
03 Feb ? 19:38:48 49° NNW 19:38:48 49° NNW 19:42:41 10° NNW visible
03 Feb ? 21:20:48 10° WNW 21:20:48 10° WNW 21:20:53 10° WNW visible
04 Feb ? 17:44:52 11° ENE 17:45:49 12° NE 17:47:36 10° NE visible
04 Feb ? 19:26:52 53° N 19:26:52 53° N 19:31:02 10° N visible
04 Feb ? 21:08:52 13° WNW 21:08:52 13° WNW 21:10:08 10° NW visible
05 Feb ? 19:14:56 51° NNE 19:14:56 51° NNE 19:19:20 10° N visible
05 Feb ? 20:56:57 17° WNW 20:56:57 17° WNW 20:59:03 10° NW visible
06 Feb ? 19:03:01 45° NE 19:03:01 45° NE 19:07:35 10° N visible
06 Feb ? 20:45:01 22° WNW 20:45:01 22° WNW 20:47:48 10° NW visible
07 Feb ? 18:51:04 37° ENE 18:51:04 37° ENE 18:55:49 10° N visible
07 Feb ? 20:33:05 28° WNW 20:33:05 28° WNW 20:36:26 10° NW visible
